Simultaneous Nadir Overpasses (SNOs) Predictions

Prediction of SNOs between GOES-16 and METOP-C Satellite Orbit:

Table of predicted SNOs for the next 14.0 days since TLE Epoch: 10/12/2024
Index Date Time (GOES-16) GOES-16 Lat,Lon METOP-C Lat,Lon Distance(km) Time Diff (sec)
1 10/13/2024 02:41:09 0.06, -75.20 -0.51, -77.77 292.37 80
2 10/14/2024 02:23:10 0.05, -75.21 0.60, -72.78 277.24 80
3 10/15/2024 14:42:03 -0.05, -75.24 0.43, -77.34 239.54 80
4 10/16/2024 14:18:44 -0.05, -75.25 -0.69, -72.35 330.52 80
5 10/18/2024 02:37:46 0.05, -75.25 -0.30, -76.95 193.36 80
6 10/19/2024 02:19:47 0.05, -75.26 0.77, -71.95 377.03 80
7 10/20/2024 14:38:39 -0.05, -75.30 0.21, -76.52 138.76 80
8 10/21/2024 14:15:20 -0.05, -75.31 -0.89, -71.52 431.93 80
9 10/23/2024 02:37:01 0.04, -75.32 -0.12, -76.12 90.85 80
10 10/24/2024 02:13:42 0.04, -75.34 0.99, -71.12 480.42 80
11 10/25/2024 14:35:13 -0.04, -75.38 0.00, -75.69 33.82 80
